TimeICT,TemperatureF,Dew PointF,Humidity,Sea Level PressureIn,VisibilityMPH,Wind Direction,Wind SpeedMPH,Gust SpeedMPH,PrecipitationIn,Events,Conditions,WindDirDegrees,DateUTC
12:00 AM,80.6,78.8,94,29.92,3.1,Calm,Calm,-,N/A,,Mostly Cloudy,0,2012-10-01 17:00:00
12:30 AM,80.6,78.8,94,29.89,3.1,Calm,Calm,-,N/A,,Mostly Cloudy,0,2012-10-01 17:30:00
1:00 AM,78.8,78.8,100,29.89,3.1,NNE,2.3,-,N/A,,Mostly Cloudy,20,2012-10-01 18:00:00
1:30 AM,78.8,78.8,100,29.89,3.1,NE,3.5,-,N/A,,Mostly Cloudy,50,2012-10-01 18:30:00
2:00 AM,78.8,78.8,100,29.86,3.1,NE,3.5,-,N/A,,Mostly Cloudy,50,2012-10-01 19:00:00
2:30 AM,78.8,77.0,94,29.86,3.1,NNE,3.5,-,N/A,,Mostly Cloudy,20,2012-10-01 19:30:00
3:00 AM,78.8,77.0,94,29.86,3.1,Calm,Calm,-,N/A,,Mostly Cloudy,0,2012-10-01 20:00:00
3:30 AM,78.8,77.0,94,29.86,3.1,Calm,Calm,-,N/A,,Mostly Cloudy,0,2012-10-01 20:30:00
4:00 AM,78.8,77.0,94,29.86,3.1,Calm,Calm,-,N/A,,Mostly Cloudy,0,2012-10-01 21:00:00
5:00 AM,78.8,77.0,94,29.86,3.1,NE,2.3,-,N/A,,Mostly Cloudy,40,2012-10-01 22:00:00
5:30 AM,78.8,77.0,94,29.86,3.1,Calm,Calm,-,N/A,,Mostly Cloudy,0,2012-10-01 22:30:00
6:00 AM,78.8,77.0,94,29.86,3.1,NNE,2.3,-,N/A,,Mostly Cloudy,20,2012-10-01 23:00:00
6:30 AM,78.8,77.0,94,29.86,3.1,NNE,4.6,-,N/A,,Mostly Cloudy,30,2012-10-01 23:30:00
7:00 AM,78.8,77.0,94,29.89,3.1,NE,2.3,-,N/A,,Mostly Cloudy,50,2012-10-02 00:00:00
7:30 AM,78.8,77.0,94,29.89,2.5,Calm,Calm,-,N/A,,Mostly Cloudy,0,2012-10-02 00:30:00
8:00 AM,80.6,78.8,94,29.89,2.5,Calm,Calm,-,N/A,,Mostly Cloudy,0,2012-10-02 01:00:00
8:30 AM,82.4,78.8,89,29.92,2.5,Calm,Calm,-,N/A,,Mostly Cloudy,0,2012-10-02 01:30:00
9:00 AM,84.2,78.8,84,29.92,3.1,Calm,Calm,-,N/A,,Mostly Cloudy,0,2012-10-02 02:00:00
9:30 AM,86.0,78.8,79,29.92,3.7,Calm,Calm,-,N/A,,Mostly Cloudy,0,2012-10-02 02:30:00
10:00 AM,86.0,78.8,79,29.92,3.7,Calm,Calm,-,N/A,,Mostly Cloudy,0,2012-10-02 03:00:00
10:30 AM,87.8,77.0,70,29.92,3.7,Calm,Calm,-,N/A,,Mostly Cloudy,0,2012-10-02 03:30:00
11:00 AM,87.8,78.8,75,29.92,3.7,South,4.6,-,N/A,,Mostly Cloudy,180,2012-10-02 04:00:00
11:30 AM,82.4,78.8,89,29.92,3.1,WSW,11.5,-,N/A,Thunderstorm,Thunderstorm,240,2012-10-02 04:30:00
12:00 PM,77.0,75.2,94,29.92,1.2,North,9.2,-,N/A,Rain-Thunderstorm,Thunderstorms and Rain,360,2012-10-02 05:00:00
12:30 PM,77.0,75.2,94,29.89,1.2,North,9.2,-,N/A,Rain-Thunderstorm,Thunderstorms and Rain,360,2012-10-02 05:30:00
1:00 PM,77.0,75.2,94,29.89,1.9,North,6.9,-,N/A,Rain-Thunderstorm,Thunderstorms and Rain,360,2012-10-02 06:00:00
1:30 PM,77.0,75.2,94,29.86,2.5,North,4.6,-,N/A,Rain-Thunderstorm,Light Thunderstorms and Rain,360,2012-10-02 06:30:00
2:00 PM,77.0,75.2,94,29.86,2.5,North,4.6,-,N/A,Rain-Thunderstorm,Light Thunderstorms and Rain,360,2012-10-02 07:00:00
2:30 PM,77.0,75.2,94,29.86,2.5,Calm,Calm,-,N/A,Thunderstorm,Thunderstorm,0,2012-10-02 07:30:00
3:00 PM,77.0,75.2,94,29.83,2.5,Calm,Calm,-,N/A,,Mostly Cloudy,0,2012-10-02 08:00:00
3:30 PM,77.0,75.2,94,29.80,2.5,Calm,Calm,-,N/A,,Mostly Cloudy,0,2012-10-02 08:30:00
4:00 PM,78.8,75.2,89,29.80,2.5,Calm,Calm,-,N/A,,Mostly Cloudy,0,2012-10-02 09:00:00
4:30 PM,78.8,75.2,89,29.80,2.5,Calm,Calm,-,N/A,,Mostly Cloudy,0,2012-10-02 09:30:00
5:00 PM,78.8,77.0,94,29.80,2.5,Calm,Calm,-,N/A,,Mostly Cloudy,0,2012-10-02 10:00:00
5:30 PM,78.8,77.0,94,29.80,2.5,Calm,Calm,-,N/A,,Mostly Cloudy,0,2012-10-02 10:30:00
6:00 PM,78.8,77.0,94,29.83,2.5,Calm,Calm,-,N/A,,Mostly Cloudy,0,2012-10-02 11:00:00
6:30 PM,78.8,77.0,94,29.83,2.5,Calm,Calm,-,N/A,,Mostly Cloudy,0,2012-10-02 11:30:00
7:00 PM,78.8,77.0,94,29.83,2.5,Calm,Calm,-,N/A,,Mostly Cloudy,0,2012-10-02 12:00:00
7:30 PM,78.8,77.0,94,29.83,2.5,Calm,Calm,-,N/A,,Mostly Cloudy,0,2012-10-02 12:30:00
8:00 PM,78.8,77.0,94,29.86,2.5,Calm,Calm,-,N/A,,Mostly Cloudy,0,2012-10-02 13:00:00
8:30 PM,78.8,77.0,94,29.86,2.5,Calm,Calm,-,N/A,,Mostly Cloudy,0,2012-10-02 13:30:00
9:00 PM,78.8,77.0,94,29.89,2.5,Calm,Calm,-,N/A,,Mostly Cloudy,0,2012-10-02 14:00:00
9:30 PM,78.8,77.0,94,29.89,1.9,Calm,Calm,-,N/A,,Mostly Cloudy,0,2012-10-02 14:30:00
10:00 PM,78.8,77.0,94,29.89,1.9,Calm,Calm,-,N/A,,Mostly Cloudy,0,2012-10-02 15:00:00
10:30 PM,78.8,77.0,94,29.89,1.9,Calm,Calm,-,N/A,,Mostly Cloudy,0,2012-10-02 15:30:00
11:00 PM,78.8,77.0,94,29.89,1.9,Calm,Calm,-,N/A,,Mostly Cloudy,0,2012-10-02 16:00:00
11:30 PM,78.8,77.0,94,29.86,1.9,Calm,Calm,-,N/A,,Mostly Cloudy,0,2012-10-02 16:30:00